{"data":{"norad_id":42719,"intl_designator":"2017-027A","name":"COSMOS 2518","alt_names":[],"object_type":"PAYLOAD","status":"ACTIVE","operator":null,"country":"CIS","launch_date":"2017-05-25","launch_site_code":"PLMSC","launch_vehicle":null,"mission":null,"orbit_class":"UNKNOWN","rcs_meters":null,"size_class":null,"mass_kg":null,"dimensions":null,"purposes":[],"wikipedia_slug":null,"has_3d_model":false,"image_url":null,"decayed_at":null,"tle_current":{"epoch":"2026-05-23T16:46:37.310880Z","epoch_age_seconds":183620,"freshness":"STALE","line1":"1 42719U 17027A   26143.69904295 -.00001252  00000+0  00000+0 0  9999","line2":"2 42719  63.0598 251.3391 6985085 273.6369  15.8328  2.00884831 65919","mean_motion":2.00884831,"eccentricity":0.6985085,"inclination_deg":63.0598,"raan_deg":251.3391,"arg_perigee_deg":273.6369,"mean_anomaly_deg":15.8328,"bstar":0,"rev_number":6591,"period_min":716.82863899266,"perigee_km":1621.0432757504,"apogee_km":38686.734452079,"semimajor_km":26532.025863915,"source":"CELESTRAK","updated_at":"2026-05-25T13:37:55.689348Z"}}}